Location: Lucerne Valley
(34.4439°N, 116.9669°E)
Time: 14:11:31
(UTC-08:00)

Vanguard 1 - Visible Passes

Search period start: 19 February 2018 00:00
Search period end: 01 March 2018 00:00
Orbit: 650 x 3833 km, 34.2° (Epoch: 19 February)

Date Brightness Start Highest point End Pass type
(mag) Time Alt. Az. Time Alt. Az. Time Alt. Az.
19 Feb 11.0 04:31:37 10° W 04:34:40 28° WSW 04:34:40 28° WSW visible
20 Feb 9.8 02:30:15 10° W 02:37:20 80° S 02:41:59 10° ESE visible
20 Feb 11.7 04:53:04 10° W 04:54:43 17° WSW 04:54:43 17° WSW visible
21 Feb 9.8 02:51:36 10° W 02:58:17 67° SSW 03:02:02 15° ESE visible
22 Feb 10.1 03:12:57 10° W 03:19:08 51° SSW 03:22:06 20° SE visible
23 Feb 10.6 03:34:21 10° W 03:39:54 36° SSW 03:42:12 22° SSE visible
24 Feb 11.1 03:55:57 10° W 04:00:33 24° SW 04:02:20 19° S visible
25 Feb 11.6 04:18:03 10° WSW 04:21:07 15° SW 04:22:30 14° SSW visible
27 Feb 11.2 02:36:13 10° W 02:43:29 39° SSW 02:48:12 10° SE visible
28 Feb 11.7 02:57:57 10° W 03:04:04 27° SW 03:08:22 10° SSE visible
